TimeEDT,TemperatureF,Dew PointF,Humidity,Sea Level PressureIn,VisibilityMPH,Wind Direction,Wind SpeedMPH,Gust SpeedMPH,PrecipitationIn,Events,Conditions,WindDirDegrees,DateUTC
12:58 AM,68.2,63.5,85,30.03,0.5,ENE,5.8,-,N/A,,Haze,60,2013-09-09 04:58:00
1:00 AM,68.0,62.6,83,30.03,10.0,ENE,6.9,-,N/A,,Clear,70,2013-09-09 05:00:00
1:58 AM,67.6,63.3,86,30.03,10.0,ENE,2.3,-,N/A,,Clear,60,2013-09-09 05:58:00
2:58 AM,66.9,63.1,88,30.03,10.0,North,2.3,-,N/A,,Clear,10,2013-09-09 06:58:00
3:58 AM,66.2,63.0,89,30.02,10.0,ENE,2.3,-,N/A,,Clear,70,2013-09-09 07:58:00
4:58 AM,66.2,63.3,90,30.02,10.0,NNE,2.3,-,N/A,,Clear,20,2013-09-09 08:58:00
5:58 AM,65.7,63.3,92,30.01,10.0,SE,3.5,-,N/A,,Clear,130,2013-09-09 09:58:00
6:48 AM,64.4,62.6,94,30.03,6.0,ENE,2.3,-,N/A,,Mostly Cloudy,60,2013-09-09 10:48:00
6:58 AM,66.2,62.6,88,30.03,6.0,East,3.5,-,N/A,,Scattered Clouds,80,2013-09-09 10:58:00
7:58 AM,65.8,63.3,92,30.04,10.0,Calm,Calm,-,N/A,,Clear,0,2013-09-09 11:58:00
8:08 AM,66.2,64.4,94,30.05,1.2,Calm,Calm,-,N/A,,Clear,0,2013-09-09 12:08:00
8:58 AM,69.3,65.7,88,30.05,10.0,SE,2.3,-,N/A,,Clear,140,2013-09-09 12:58:00
9:58 AM,74.8,67.5,78,30.05,10.0,South,5.8,-,N/A,,Partly Cloudy,180,2013-09-09 13:58:00
10:47 AM,80.6,68.0,65,30.05,10.0,SSW,6.9,-,N/A,,Partly Cloudy,200,2013-09-09 14:47:00
10:49 AM,80.6,68.0,65,30.05,10.0,SSW,6.9,-,N/A,,Scattered Clouds,210,2013-09-09 14:49:00
10:58 AM,80.6,68.5,67,30.04,10.0,South,5.8,-,N/A,,Partly Cloudy,180,2013-09-09 14:58:00
11:58 AM,85.1,69.1,59,30.04,10.0,SW,10.4,-,N/A,,Partly Cloudy,220,2013-09-09 15:58:00
12:44 PM,87.8,68.0,52,30.04,10.0,South,11.5,20.7,N/A,,Partly Cloudy,180,2013-09-09 16:44:00
12:58 PM,87.1,68.2,53,30.03,10.0,SSW,13.8,-,N/A,,Partly Cloudy,210,2013-09-09 16:58:00
1:58 PM,88.7,68.4,51,30.01,10.0,South,11.5,-,N/A,,Clear,170,2013-09-09 17:58:00
2:35 PM,89.6,66.2,46,30.01,10.0,SW,15.0,-,N/A,,Partly Cloudy,220,2013-09-09 18:35:00
2:39 PM,89.6,68.0,49,30.00,10.0,South,13.8,-,N/A,,Partly Cloudy,170,2013-09-09 18:39:00
2:41 PM,89.6,68.0,49,30.00,10.0,South,13.8,-,N/A,,Partly Cloudy,170,2013-09-09 18:41:00
2:58 PM,90.0,66.7,46,29.99,10.0,South,12.7,18.4,N/A,,Clear,180,2013-09-09 18:58:00
3:58 PM,90.7,66.7,45,29.97,10.0,South,16.1,-,N/A,,Partly Cloudy,180,2013-09-09 19:58:00
4:33 PM,91.4,66.2,43,29.98,10.0,SSW,15.0,23.0,N/A,,Clear,210,2013-09-09 20:33:00
4:58 PM,91.0,66.0,44,29.96,10.0,South,15.0,20.7,N/A,,Clear,170,2013-09-09 20:58:00
5:58 PM,89.6,67.1,47,29.96,10.0,SSE,9.2,-,N/A,,Partly Cloudy,160,2013-09-09 21:58:00
6:58 PM,88.2,64.6,45,29.96,10.0,South,11.5,-,N/A,,Partly Cloudy,180,2013-09-09 22:58:00
7:58 PM,84.6,67.1,56,29.97,10.0,South,10.4,-,N/A,,Clear,170,2013-09-09 23:58:00
8:58 PM,81.9,67.8,62,29.99,10.0,South,6.9,-,N/A,,Clear,170,2013-09-10 00:58:00
9:58 PM,80.4,68.2,66,30.01,10.0,SSE,8.1,-,N/A,,Clear,160,2013-09-10 01:58:00
10:58 PM,78.6,68.2,70,30.01,10.0,South,8.1,-,N/A,,Clear,170,2013-09-10 02:58:00
11:58 PM,77.7,68.5,73,30.02,10.0,SSE,5.8,-,N/A,,Clear,160,2013-09-10 03:58:00